Location: Kimberly
(42.5380°N, 114.3640°W)
Time: 16:12:03
(UTC-07:00)

ISS - Visible Passes

Search period start: 21 February 2018 00:00
Search period end: 03 March 2018 00:00
Orbit: 403 x 407 km, 51.6° (Epoch: 22 February)

Date Brightness Start Highest point End Pass type
(mag) Time Alt. Az. Time Alt. Az. Time Alt. Az.
26 Feb -1.2 06:05:23 10° S 06:07:50 20° SE 06:10:17 10° E visible
27 Feb -0.7 05:15:08 10° SE 05:15:49 10° SE 05:16:29 10° ESE visible
28 Feb -2.9 05:57:15 16° SSW 05:59:33 45° SE 06:02:43 10° ENE visible
01 Mar -1.8 05:07:30 24° SE 05:07:30 24° SE 05:10:07 10° E visible
01 Mar -3.3 06:40:35 10° WSW 06:43:44 44° NNW 06:46:54 10° NE visible
02 Mar -3.9 05:50:16 38° WSW 05:51:23 76° NNW 05:54:40 10° NE visible
